Simultaneous Nadir Overpasses (SNOs) Predictions

Prediction of SNOs between METOP-A and TERRA Satellite Orbit:

Table of predicted SNOs for the next 14.0 days since TLE Epoch: 8/10/2019
Index Date (METOP-A) Time (METOP-A) Lat,Lon (METOP-A) SZA (METOP-A ) Date (TERRA) Time (TERRA) Lat,Lon (TERRA) SZA (TERRA ) Distance(km) Time Diff (sec)
1 08/11/2019 04:24:26 81.45, 163.97 69.09 08/11/2019 04:24:36 81.46, 164.10 69.12 2.53 10
2 08/11/2019 05:15:06 -81.44, -28.40 110.87 08/11/2019 05:14:03 -81.45, -28.39 110.90 1.10 63
3 08/13/2019 23:58:34 81.45,-129.68 69.93 08/13/2019 23:58:51 81.45,-129.65 69.94 0.59 17
4 08/14/2019 00:49:14 -81.44, 37.99 110.03 08/14/2019 00:48:18 -81.45, 37.88 110.07 1.72 56
5 08/16/2019 19:32:42 81.45, -63.34 70.80 08/16/2019 19:33:06 81.44, -63.44 70.80 1.99 24
6 08/16/2019 20:23:22 -81.44, 104.36 109.15 08/16/2019 20:22:32 -81.45, 104.50 109.15 2.43 50
7 08/19/2019 15:06:49 81.45, 2.99 71.71 08/19/2019 15:07:19 81.44, 3.11 71.73 2.09 30
8 08/19/2019 15:57:29 -81.45, 170.73 108.24 08/19/2019 15:56:46 -81.44, 170.67 108.27 0.97 43
9 08/22/2019 10:40:56 81.45, 69.71 72.68 08/22/2019 10:41:33 81.45, 69.61 72.68 1.55 37




NCC Satellite Simultaneous Nadir Overpasses (SNOs) Prediction Service
